Shiyan 31

operational
NORAD ID: 65945 Int'l Des: 2025-227 Owner: CAST Country: CN
LEOCIRCULARPOLAR

关于 Shiyan 31

正在加载描述...

实时位置

正在加载3D地球...

即将过境

高度历史

Altitude vs Time

uPlot chart will show altitude changes over time

两行轨道根数

1 65945U 25227A 25288.63292071 .00007260 00000-0 33498-3 0 9997
2 65945 80.0018 98.9900 0011182 261.5942 98.4017 15.20081323 346
Epoch: Oct 15, 2025 • Age: 5 hours

当前状态

高度 512.9 km
速度 7.61 km/s
星下点 32.43°N, 60.96°W
发射日期 Oct 13, 2025
运行时间 2 days
类型 other

技术详情

分类 Payload
质量 1000.00 kg
干质量 1000.00 kg
总质量 1000.00 kg
长度 1.50 m
直径 1.00 m
跨度 5.00 m
形状 Box+2 pan
制造商 CAST
平台类型 SY30
阶段状态 In Orbit
所有者/国家 CAST/CN

大型星座

Loading constellations...